GFSSW_sfc_30mbdewp_000.txt.gz
Dewpoint
55 55 55 55 56 56 56 56 57 57 56 56 56 56 55 55 55 52 31 28 29 51 47 45 49 48 40 34 33 40 42 47 46 45 38 39 32 36 45 53 54 52 58 62 64
55 55 55 55 55 55 56 56 56 56 56 55 55 55 55 55 50 39 42 39 46 45 39 33 40 39 32 29 30 35 46 43 44 41 32 30 32 32 49 52 51 42 51 62 62
54 54 54 54 55 55 55 55 56 56 55 55 55 55 55 55 46 36 48 42 45 40 27 30 36 32 24 25 30 36 44 47 47 36 32 30 28 34 48 50 48 44 50 61 61
54 54 54 54 54 54 55 55 55 55 55 55 55 55 55 52 30 50 51 44 43 31 38 34 29 22 19 23 29 33 33 43 35 35 32 30 30 28 29 46 49 48 55 59 59
53 54 54 54 54 54 54 54 55 55 55 55 55 55 55 47 34 53 56 48 34 31 35 27 24 20 17 20 28 30 32 32 34 34 33 30 27 29 40 47 48 52 57 59 58
53 53 53 53 54 54 54 54 54 55 56 56 55 55 51 37 38 39 30 32 23 37 31 25 21 19 18 22 24 26 32 34 31 32 30 29 35 35 36 39 50 55 56 56 57
53 53 53 54 54 54 54 53 54 56 56 56 55 53 44 35 35 39 29 31 31 37 25 23 22 22 20 25 27 24 24 32 32 30 29 25 38 36 34 35 45 51 53 54 57
53 53 53 53 53 53 53 53 53 57 56 56 56 53 38 35 35 34 35 34 34 31 25 25 26 29 30 28 30 31 28 29 30 28 29 26 33 41 36 39 45 47 50 52 55
52 52 53 53 53 53 53 52 53 57 57 57 56 50 32 37 31 30 35 31 30 26 25 28 35 34 31 29 28 27 26 24 37 43 26 25 35 44 43 45 45 47 49 51 54
52 52 52 52 52 52 51 51 55 57 57 54 50 41 38 32 29 29 32 32 29 23 24 29 30 30 28 27 26 20 24 36 42 42 26 23 23 42 38 37 40 46 48 50 53
51 52 52 52 51 51 47 40 46 49 47 35 33 17 27 34 32 31 29 28 28 24 21 22 23 21 22 25 24 24 24 23 40 37 25 24 23 28 35 40 33 44 49 51 51
51 51 51 52 51 50 48 37 28 25 24 22 20 18 17 31 33 29 27 24 26 24 21 18 17 18 21 20 19 22 21 22 24 25 26 25 22 31 44 45 44 43 46 49 51
50 51 51 51 49 46 33 27 27 27 24 18 16 15 13 17 25 28 27 25 25 25 23 18 14 15 13 13 13 16 19 20 21 21 26 25 24 24 46 40 40 39 45 45 48
50 50 50 49 38 35 25 32 26 29 20 12 13 14 12 14 13 16 27 25 25 25 24 22 21 14 11 9 9 8 17 18 18 18 17 22 20 27 41 41 38 43 40 42 46
50 50 50 49 38 30 29 29 25 28 14 9 12 14 12 11 9 11 28 27 25 25 22 21 18 13 10 10 7 6 15 18 19 18 17 18 16 33 36 39 37 37 43 42 47
49 49 49 38 45 38 28 25 26 21 10 10 14 14 12 10 7 10 22 29 27 25 22 19 17 13 11 11 12 11 12 19 20 13 11 15 16 29 36 39 37 39 38 46 60
48 48 47 41 32 31 29 24 17 14 10 4 10 11 10 10 8 8 9 22 24 21 19 22 17 16 17 12 13 13 14 15 15 13 13 22 15 23 34 39 38 40 43 55 61
47 47 42 39 29 30 29 21 17 16 11 7 5 6 7 8 9 8 11 17 24 23 20 21 19 16 16 12 11 14 16 15 13 16 23 33 28 31 39 40 37 40 45 57 60
46 36 37 37 38 33 26 17 15 17 16 7 4 5 4 4 6 8 13 16 22 22 22 17 16 18 16 17 13 12 14 18 16 15 21 34 32 32 35 39 43 43 44 54 58
40 35 31 32 33 29 24 17 11 11 13 9 4 3 1 1 5 7 13 17 18 20 21 21 18 18 16 19 19 13 16 17 14 13 14 21 24 32 43 45 45 45 44 53 60
41 34 26 30 30 25 18 14 12 13 12 8 9 7 4 0 8 8 8 15 15 17 19 20 20 18 15 15 14 14 11 15 18 15 14 17 34 45 37 39 46 46 48 52 59
35 27 32 31 23 20 18 16 15 10 10 9 8 8 6 6 8 13 10 10 16 15 16 18 17 17 18 16 18 16 15 15 20 22 20 22 34 41 46 44 45 48 52 54 58
35 28 33 31 22 16 16 14 14 10 11 10 8 7 9 10 10 15 15 14 16 15 18 18 17 17 20 19 18 16 15 17 20 25 23 20 24 42 47 50 49 49 54 57 60
37 23 25 29 26 19 18 17 14 12 11 13 8 8 5 10 11 14 18 16 20 18 34 30 26 20 17 20 26 19 18 15 18 18 17 17 38 40 40 49 53 54 54 60 61
37 28 29 23 20 21 20 24 23 14 16 15 12 9 9 11 11 12 17 23 16 24 25 25 30 27 21 24 25 25 22 18 13 18 16 20 30 43 43 40 43 53 60 61 62
35 34 35 32 33 33 28 18 25 24 17 16 11 13 13 17 17 17 17 21 22 23 28 30 30 31 27 25 22 23 23 19 14 13 15 16 43 47 45 45 43 52 61 60 60
38 37 35 32 30 28 28 27 22 25 25 16 21 16 14 18 19 20 19 30 28 25 29 30 31 33 28 25 23 23 22 25 18 18 19 33 45 49 47 45 48 60 58 58 59

GFSSW_sfc_30mbdewp_003.txt.gz
Dewpoint
55 56 56 56 56 56 56 56 57 57 56 56 56 56 56 56 56 54 35 29 31 52 56 42 42 45 46 39 34 32 42 43 46 45 42 42 41 49 47 51 51 57 57 61 66
55 55 55 55 56 56 56 56 56 56 56 55 56 55 55 56 52 40 39 43 43 46 27 41 40 44 39 33 31 32 39 39 43 43 42 41 41 43 44 44 44 52 64 65 65
54 55 55 55 55 55 56 56 56 56 56 55 55 55 55 56 50 39 52 42 44 43 26 31 30 35 30 26 24 30 42 41 40 43 44 42 40 43 46 43 45 49 63 64 64
54 54 54 54 55 55 55 55 55 56 55 55 55 55 56 54 36 48 49 43 45 36 24 29 32 30 22 19 21 23 34 42 43 45 44 31 33 46 40 44 48 50 63 63 61
54 54 54 54 55 55 55 55 54 55 55 56 55 55 55 50 42 56 53 48 40 32 27 38 31 25 18 17 18 23 30 33 40 37 32 32 34 41 44 45 49 50 61 62 62
53 54 54 54 54 54 54 54 54 55 56 56 56 55 53 43 42 51 42 33 24 27 33 35 24 22 18 18 20 27 27 25 34 33 31 32 33 31 46 48 47 51 60 61 61
53 53 54 54 54 54 54 54 53 54 56 56 56 54 49 40 36 38 27 28 22 29 34 28 24 22 23 26 24 29 29 25 33 37 34 35 34 32 39 52 53 57 60 61 59
53 53 53 53 53 53 53 53 53 54 57 56 57 55 37 40 38 32 28 30 27 36 37 27 25 25 28 32 33 27 28 29 36 38 39 37 27 36 39 42 44 58 59 60 59
52 52 52 53 53 53 53 51 53 54 57 57 56 53 40 35 32 34 33 33 33 32 26 26 29 33 35 32 29 27 27 36 34 35 36 36 33 40 43 41 44 53 55 58 58
52 52 52 52 53 52 51 51 54 57 58 56 53 43 43 36 31 31 33 34 29 26 23 27 30 31 31 29 24 26 31 35 35 37 31 32 35 42 45 46 52 56 57 57 57
52 52 52 52 52 52 48 44 43 50 50 45 39 28 25 34 31 30 27 32 29 24 22 26 26 24 26 26 24 23 22 33 38 39 34 34 35 41 43 47 47 55 51 56 57
51 51 51 51 50 50 50 37 28 26 24 25 24 24 26 30 31 30 28 28 28 25 23 21 20 21 23 22 20 17 15 18 24 37 37 33 29 43 44 42 40 50 52 55 58
50 51 51 50 47 46 36 33 28 27 26 24 22 19 21 19 30 32 29 25 26 25 25 20 18 18 17 14 11 11 11 12 17 18 28 26 29 37 44 41 41 52 52 52 51
50 50 50 49 37 36 33 31 27 27 25 21 17 16 16 15 14 26 27 23 22 24 25 25 23 20 18 11 10 7 9 8 15 15 15 21 18 39 42 37 40 43 42 48 50
50 50 49 49 39 35 32 30 26 28 11 16 12 17 14 13 13 14 26 23 22 23 25 25 24 22 19 15 11 7 6 7 20 20 19 17 18 37 42 38 41 44 48 42 50
49 49 48 43 45 42 39 34 27 24 15 13 12 10 10 11 12 13 23 25 25 24 24 25 23 20 14 13 12 12 11 15 20 18 16 16 21 34 38 37 40 45 46 45 51
47 47 47 42 33 33 31 29 21 19 16 6 12 12 13 10 10 9 23 26 26 24 24 25 22 22 17 15 16 14 13 13 16 18 17 32 30 38 37 39 39 42 46 57 65
46 46 45 43 33 32 33 26 18 17 13 12 11 13 12 12 11 9 11 25 27 26 25 23 20 23 18 17 14 18 15 16 16 20 22 33 29 38 40 38 43 58 61 59 60
46 39 41 40 42 37 32 22 18 17 18 13 11 10 7 8 8 10 7 11 13 24 22 23 23 25 21 17 16 12 17 19 17 20 18 30 34 37 46 42 44 59 59 57 55
44 39 34 37 38 33 29 22 17 15 13 13 11 11 5 6 3 3 11 11 14 17 25 22 22 25 21 17 17 14 16 16 18 13 14 29 38 38 39 37 45 54 58 56 59
44 37 37 34 35 28 22 19 16 16 13 13 12 10 11 11 10 7 9 12 18 17 22 23 24 21 23 21 20 20 17 17 19 21 14 24 31 41 40 46 49 50 58 60 59
39 31 31 33 27 25 22 20 18 16 17 15 13 11 10 11 11 13 12 9 13 18 17 21 25 22 20 21 19 16 18 18 15 17 29 27 35 44 44 44 44 49 53 62 60
38 36 33 31 26 23 20 17 17 17 16 13 13 11 10 9 11 17 18 17 17 20 23 27 19 17 18 22 23 17 18 22 24 29 20 21 37 48 52 47 42 38 53 59 60
37 34 30 33 30 27 26 23 18 17 14 14 13 14 14 8 12 15 15 18 18 30 29 26 30 18 16 25 27 25 22 18 21 20 18 20 40 46 47 43 46 45 50 57 59
39 36 36 32 30 33 32 23 21 23 25 15 15 17 15 13 8 14 15 13 15 25 20 27 26 30 30 31 23 26 24 24 25 19 20 26 37 44 49 49 50 59 57 60 61
38 37 36 34 34 33 33 32 29 21 25 22 16 16 16 17 21 13 17 19 24 26 24 26 28 33 29 33 31 28 28 28 25 21 17 32 41 47 46 53 57 55 54 52 61
40 40 37 31 30 27 29 28 26 28 20 24 25 17 13 14 32 32 28 25 31 36 36 34 29 33 29 33 33 28 31 33 33 29 30 29 37 46 40 46 58 55 55 61 61

GFSSW_sfc_30mbdewp_006.txt.gz
Dewpoint
55 55 56 56 56 56 56 56 56 57 56 57 55 56 55 56 56 54 29 20 29 57 55 41 46 41 43 44 36 36 43 43 46 46 46 50 49 52 51 52 53 54 53 60 64
55 55 55 55 55 56 56 56 56 56 56 56 55 56 55 56 52 40 38 41 45 55 27 41 42 45 44 37 34 31 37 41 46 47 44 44 46 48 45 50 49 57 63 64 66
55 54 55 55 55 55 56 56 55 55 55 55 55 55 56 56 50 43 54 47 49 46 25 37 37 37 37 31 28 32 33 41 40 43 43 42 41 42 44 42 48 57 64 64 66
54 54 55 55 55 55 55 55 55 55 55 55 55 56 56 54 36 48 59 50 48 38 25 24 30 30 25 20 21 19 28 33 37 41 45 44 42 43 42 43 46 64 65 64 65
54 54 54 54 54 55 55 55 55 54 55 56 55 56 54 46 37 53 53 52 40 30 23 26 36 31 22 18 18 17 19 28 33 41 40 41 41 42 45 49 53 65 65 64 66
54 54 54 54 54 54 54 54 54 54 55 56 56 55 52 29 47 54 43 38 27 28 30 34 34 26 22 20 21 20 27 29 36 37 38 34 41 43 46 50 60 63 63 62 65
53 53 53 53 53 53 54 53 53 54 55 56 56 54 48 18 40 47 32 23 24 26 32 34 34 23 23 24 31 32 29 29 35 37 35 36 36 31 48 48 60 61 62 62 63
52 52 53 53 53 53 53 52 53 54 54 56 56 55 24 42 38 31 25 28 25 22 33 37 36 24 26 32 34 32 33 31 32 35 38 34 31 36 51 53 57 57 55 58 61
52 52 52 52 52 53 52 52 54 55 56 57 56 53 34 40 34 31 28 32 28 24 32 33 27 30 33 33 30 28 25 31 30 35 36 33 32 41 49 56 52 49 47 50 59
52 52 52 52 52 52 51 52 55 56 57 57 54 41 35 37 33 33 30 32 32 29 25 24 29 29 31 30 18 25 31 32 31 32 36 34 31 35 47 53 51 49 55 54 61
51 52 51 51 51 51 48 41 33 35 50 40 34 34 31 36 32 32 33 33 31 25 21 24 25 19 22 27 29 28 25 27 31 35 35 32 34 38 53 55 53 50 48 53 55
51 51 51 50 49 49 49 35 27 26 24 27 29 31 34 32 27 30 28 26 28 25 24 22 21 24 26 26 25 22 18 18 27 33 36 32 33 45 51 52 50 46 47 49 53
50 50 50 50 48 46 34 33 34 28 25 26 24 21 18 23 23 30 26 28 28 26 25 22 18 21 21 19 17 13 9 9 10 16 37 34 30 40 43 49 47 51 53 56 56
49 49 50 49 35 37 32 34 35 29 23 19 23 19 18 20 17 34 27 27 24 25 25 25 26 24 23 20 16 11 10 11 9 18 16 28 16 37 41 43 48 49 53 55 56
48 49 49 48 40 35 34 32 36 29 -3 17 16 19 16 15 15 25 30 24 22 22 25 24 25 24 23 23 20 13 11 9 10 19 19 16 16 25 41 36 40 50 53 54 57
48 48 47 43 43 40 38 31 28 21 -2 15 11 13 13 14 13 16 28 25 24 22 23 24 25 26 23 22 20 14 13 17 22 19 14 14 17 17 38 37 39 44 47 46 60
47 47 47 43 22 34 33 28 17 16 18 12 10 11 10 11 12 12 24 24 23 21 21 23 24 26 26 21 16 15 14 11 10 12 11 23 30 32 41 40 41 42 44 46 49
46 47 45 45 40 36 33 23 13 17 14 14 13 13 10 11 10 10 21 23 25 26 25 24 22 23 24 20 15 13 14 12 11 13 18 27 28 32 45 46 47 44 48 64 65
46 42 42 42 44 37 29 17 10 20 18 14 13 11 11 13 12 10 15 23 24 27 24 22 22 26 25 24 17 15 14 16 14 22 18 23 35 41 41 46 58 56 60 62 62
43 40 37 39 40 34 28 21 21 19 16 15 12 13 10 11 9 10 11 16 24 28 26 22 18 20 21 24 19 15 16 13 18 12 12 24 37 36 41 47 57 59 58 58 59
42 37 38 39 33 29 22 23 20 16 17 16 15 13 11 10 11 10 9 11 12 14 26 23 21 20 23 21 18 16 15 17 18 19 14 19 31 41 41 45 45 55 58 58 61
39 31 34 34 26 26 20 21 21 18 19 18 16 14 12 10 9 9 11 15 18 12 17 21 22 20 21 23 23 19 17 17 14 12 27 28 34 45 45 49 52 56 60 61 61
33 37 37 31 23 23 22 19 17 16 17 17 15 15 13 9 6 12 13 17 17 28 18 22 22 19 19 18 22 21 18 20 22 24 16 18 29 47 48 47 51 57 57 62 61
38 35 35 33 31 28 28 28 26 24 22 18 15 15 14 13 13 7 8 11 15 16 32 31 24 19 17 17 27 26 26 24 22 20 17 19 35 45 48 43 50 52 52 60 59
40 37 36 33 32 33 33 33 30 25 23 25 23 17 15 14 14 13 10 10 17 27 25 28 22 28 28 31 32 31 29 32 29 23 22 22 34 42 46 45 49 51 53 57 49
38 38 38 34 33 29 30 32 31 29 29 24 22 21 15 14 15 14 17 18 22 32 34 31 19 33 26 31 32 32 31 33 31 30 25 33 38 46 49 51 51 51 54 54 56
40 40 38 33 27 25 27 35 34 38 38 38 36 25 23 18 17 29 31 28 27 33 34 40 30 29 26 34 32 27 30 32 33 35 33 30 39 50 50 54 53 53 52 48 54

GFSSW_sfc_30mbdewp_009.txt.gz
Dewpoint
55 55 55 56 56 56 56 56 56 56 55 55 55 55 56 56 56 54 26 19 22 60 59 54 54 40 43 44 41 44 36 40 45 45 44 51 50 51 51 52 53 52 57 61 66
55 55 55 56 56 56 56 56 56 56 55 54 55 55 56 56 52 41 37 40 47 62 34 40 41 44 44 41 35 31 33 38 45 47 45 49 50 49 49 51 52 58 62 63 67
54 55 55 55 55 55 55 56 56 55 55 55 55 56 56 56 50 43 48 47 50 56 24 40 40 42 39 34 29 33 30 38 33 46 46 47 49 51 48 47 49 58 62 63 66
54 54 54 54 54 55 55 55 55 55 55 56 56 56 57 54 39 48 59 50 56 47 24 26 28 29 29 23 21 22 29 27 26 30 43 42 43 44 45 43 46 63 63 65 65
53 54 54 54 54 54 54 54 54 55 55 56 57 57 54 40 29 56 57 57 46 31 20 26 33 32 23 19 19 18 20 27 29 37 40 44 43 42 44 52 62 64 64 65 66
53 53 53 53 53 53 54 54 54 54 55 56 57 56 51 18 49 52 46 34 29 24 24 31 35 30 24 22 23 24 28 31 31 36 38 38 41 43 48 63 64 64 64 65 65
52 52 52 52 52 53 53 53 53 53 54 55 56 54 44 11 46 44 36 32 25 26 31 34 35 28 23 22 29 33 30 30 32 36 35 39 39 39 49 64 64 64 64 64 64
52 52 52 52 52 52 52 52 52 54 54 55 56 55 26 39 46 38 28 22 25 22 30 35 36 32 24 30 32 31 33 30 32 36 37 34 36 45 55 62 62 62 62 61 62
51 51 52 52 52 52 51 51 55 55 55 56 55 52 25 40 32 31 26 28 26 21 24 33 30 28 33 30 29 28 22 28 30 36 36 35 35 49 57 59 59 59 58 59 59
51 52 52 51 51 51 50 51 56 56 56 56 54 35 27 37 35 31 27 34 32 31 26 25 29 28 31 31 11 23 29 28 26 34 35 33 40 50 56 56 57 56 57 55 54
51 51 51 50 50 50 49 41 31 29 44 29 27 27 28 35 34 32 31 32 32 24 21 24 23 19 23 29 30 28 26 25 26 28 33 33 40 47 52 52 51 48 52 50 55
50 50 50 50 49 49 47 34 32 30 24 26 29 35 35 35 27 30 32 30 30 27 23 22 17 22 25 25 25 24 23 20 17 22 33 32 42 49 53 53 50 47 50 54 58
49 49 49 49 48 41 32 33 34 32 24 23 25 23 19 24 25 26 31 28 28 26 25 22 18 24 23 21 20 19 16 11 10 15 34 34 37 44 47 52 51 50 49 52 53
49 49 49 48 31 38 32 37 31 31 17 12 21 19 18 22 22 27 28 27 26 26 27 25 26 24 25 23 22 19 16 13 10 12 6 29 17 39 42 47 47 46 50 51 55
48 48 48 48 40 30 34 35 31 28 -3 11 18 20 19 19 20 27 28 26 25 23 25 22 25 25 24 24 22 21 19 12 13 17 19 18 15 21 41 40 46 46 49 51 54
47 48 47 42 41 34 36 32 27 11 -5 11 16 15 15 15 14 27 27 26 26 23 23 23 26 24 24 25 25 24 17 17 23 19 12 15 17 20 38 37 39 46 49 53 53
47 47 47 44 18 35 33 26 13 7 12 13 12 12 11 10 13 19 27 25 24 20 21 22 22 24 25 24 24 17 14 10 9 9 7 26 26 28 38 42 42 41 46 51 55
46 47 47 45 40 36 30 20 1 6 15 16 13 13 10 10 11 14 23 25 25 24 25 21 16 25 25 24 23 16 13 10 8 11 12 25 22 32 43 45 48 45 48 53 60
46 40 40 41 44 36 26 8 -6 12 18 14 13 12 10 11 11 11 17 17 21 26 22 23 22 27 26 23 22 19 16 16 15 20 17 20 33 40 45 52 53 50 62 63 62
42 40 38 41 41 33 25 13 17 22 16 16 12 13 10 10 10 11 13 16 20 24 26 24 20 20 19 23 23 21 19 16 17 12 11 18 35 32 42 51 55 57 60 61 57
40 34 35 41 33 29 21 21 22 19 18 17 15 13 12 10 10 9 9 12 20 19 27 25 21 18 20 21 19 17 15 17 18 17 13 14 24 39 42 50 57 58 60 58 50
35 30 36 33 21 26 22 22 21 19 16 14 18 16 14 12 8 8 9 14 16 18 23 26 23 21 20 22 24 20 16 17 15 14 24 25 25 45 43 46 52 59 59 60 60
32 36 38 32 21 21 22 21 20 18 19 17 16 16 15 13 10 9 13 16 13 12 17 23 22 16 13 19 22 21 20 20 22 19 19 17 17 50 48 50 56 59 60 60 61
37 34 34 34 33 30 31 30 28 27 24 21 19 17 17 15 13 11 11 11 13 14 33 26 20 15 12 16 24 28 30 23 21 18 18 19 18 46 48 50 56 57 60 61 61
39 36 37 32 32 33 33 33 31 29 28 24 24 21 24 17 15 13 13 15 18 27 32 27 24 24 22 21 31 31 31 31 27 24 26 26 26 32 45 47 53 54 58 61 60
37 36 36 33 34 27 30 33 33 36 34 29 35 37 32 21 19 14 15 19 22 27 32 38 21 33 28 32 32 30 30 32 32 32 28 30 29 43 48 50 50 51 54 57 55
39 39 38 31 30 28 29 35 35 38 37 38 38 38 30 31 38 30 20 26 28 30 33 38 30 27 22 34 29 21 30 32 33 35 34 30 34 49 47 47 47 48 53 55 55